Showing default

BEIDOU 11, 38091

Orbit data source: Space-Track

BEIDOU 11, 38091 is a payload satellite owned by CNSA (CN) in GEO that was launched on Fri, 24 Feb 2012 UTC via a CHANG ZHENG 3C launch vehicle from the Xichang Space Center, China (XSC). Payload-class satellites include a variety of spacecraft equipped with specific instruments for various scientific and technological missions. These include communications satellites like Starlink; space stations such as the ISS; scientific satellites like the Hubble; Earth observation satellites from companies like Planet Labs, Umbra, and HawkEye 360; GPS; miniature CubeSats for education and research; and military/defense satellites.

Not visible in the next 10 days
Identifier
38091, 2012-008A
Orbit
GEO
Last TLE update
5 hours ago
Origin
Manufacturer
CAST
Mission
Operational Defense Navigation
Bus & Motor
DFH-3B, FY-25
Mass
3,060 kg wet, 1,700 kg dry
Launch date (UTC)
2012-02-24 (13 years ago)
Launch vehicle
CHANG ZHENG 3C
Launch site
Xichang Space Center, China (XSC)
Object type
Payload
Rocket body
Debris
Shape & HBR
Box + 2 Pan, 18 m
Radar Cross Section
13.998 m², Large (>1 m²)

Expand to show TLE details & history

TLE from 5 hours ago
0 BEIDOU 11
1 38091U 12008A   25189.14631571  .00000069  00000-0  00000+0 0  9999
2 38091   2.7139  71.2392 0007021 267.2345  59.3406  1.00276701 49024
Epoch: 2025-07-08T03:30Z
TLE epoch observation values (Epoch: 2025-07-08T03:30:41.677Z)
Latitude
-1.48762°
Longitude
58.89702°
Altitude
35,769.993 km
Speed
3.076 km/s
True Right ascension
02h 31m 39s
True Declination
-1° 29' 10"
Sunlit
Object was in daylight at epoch
Visualization orbit readout
Latitude
1.61186°
Longitude
127.94606°
Altitude
35,802.996 km
Speed
3.073 km/s
Apparent Right ascension
07h 14m 28s
Apparent Declination
-3° 31' 17"
Sunlit
Object is in daylight
Visualization observer readout
Local Sidereal Time
20:12:03
Azimuth
23.404° NE
Elevation
-51.345°
Doppler factor
1
Orbital elements
Apogee altitude
35,815.887 km
Perigee altitude
35,756.68 km
Semi-major axis
42,164.421 km
Eccentricity
0.0007
Inclination
2.7139°
RAAN
71.2392°
Arg. of periapsis
267.2345°
True anomaly
Unknown
Mean anomaly
59.3406°
Eccentric anomaly
Unknown
Mean motion
0.25068 °/min
Orbital period
1,436.08 mins
BSTAR
0
Loading historical data...
38091 neighbors
Loading maneuver chart data...
Loading SW <> Apogee altitude chart data...
Loading historical data...
Loading historical data...
Loading historical data...
Loading historical data...
Loading historical data...
Loading historical data...
Loading historical data...

BEIDOU 11 Visibility

Observer location: undefined°, undefined°

BEIDOU 11 is likely not visible in the next few days
Span
Click to sort rows by Start time (UTC) header in descending order
Start Az.
Max El. time (UTC)
Max El. Az.
Max El.
End time (UTC)
End Az.
|